Find Starlink 33798

NORAD ID: 63449 Int'l Des: 2025-069 Owner: SPXS Country: US Constellation: starlink operational
LEOCIRCULAR

リアルタイム位置

3D地球を読み込み中...

Starlink 33798について

説明を読み込み中...

次回通過

Passes for default location (London). Set your location on the main map for personalized predictions.

高度履歴

Loading altitude history...

軌道要素

1 63449U 25069S 26124.00002315 -.00008750 00000-0 -19191-3 0 9990
2 63449 53.1594 245.0773 0001219 89.3584 128.1995 15.42151258 5726
Epoch: May 4, 2026 • Age: 17 hours

現在のステータス

高度 445.0 km
速度 7.65 km/s
衛星直下点 -17.85°S, 42.66°W
打ち上げ日 Apr 4, 2025
運用期間 1 years
タイプ internet

技術仕様

分類 Payload
質量 575.00 kg
乾燥質量 530.00 kg
総質量 575.00 kg
長さ 0.30 m
直径 4.10 m
スパン 29.00 m
形状 Box + pan
製造者 SPXS
バスタイプ Starlink V2MO
フェーズステータス In Orbit
所有者/国 SPXS/US

Most Searched